Weather History for North Padre Island, TX

Change the Weather History Date:

Tuesday, March 25, 2014

  Actual Average Record
Temperature  
Mean Temperature 62 °F -  
Max Temperature 64 °F - - ()
Min Temperature 60 °F - - ()
Degree Days  
Heating Degree Days 3    
Growing Degree Days 12 (Base 50)    
Moisture  
Dew Point 55 °F    
Average Humidity 77    
Maximum Humidity 94    
Minimum Humidity 59    
Precipitation  
Precipitation 0.00 in - - ()
Sea Level Pressure  
Sea Level Pressure 30.17 in    
Wind  
Wind Speed 11 mph (NNE)    
Max Wind Speed 30 mph    
Max Gust Speed 36 mph    
Visibility 10 miles    
Events      
T = Trace of Precipitation, MM = Missing Value Source: NWS Daily Summary

Daily Weather History Graph

Daily Weather History Graph

Search for Another Location

Airport:

Trip Planner

Search our weather history database for the weather conditions in past years. The results will help you decide how hot, cold, wet, or windy it might be!

Date:

Astronomy

Mar. 25, 2014 Rise Set
Actual Time 7:26 AM CDT 7:41 PM CDT
Civil Twilight 7:02 AM CDT 8:04 PM CDT
Nautical Twilight 6:35 AM CDT 8:31 PM CDT
Astronomical Twilight 6:08 AM CDT 8:59 PM CDT
Moon 3:21 AM CDT (3/25) 2:39 PM CDT (3/25)
Length of Visible Light 13h 01m
Length of Day
12h 15m
Waning Crescent, 32% of the Moon is Illuminated
Mar 25
Waning Crescent
Mar 30
New
Apr 7
First Quarter
Apr 15
Full
Apr 22
Last Quarter

Hourly Weather History & Observations

Time (CDT) Temp. Dew Point Humidity Pressure Visibility Wind Dir Wind Speed Gust Speed Precip Events Conditions
12:15 AM 62.6 °F 59.0 °F 88% 30.08 in 10.0 mi NNW 5.8 mph - N/A   Overcast
12:35 AM 62.6 °F 59.0 °F 88% 30.09 in 10.0 mi NNW 5.8 mph - N/A   Overcast
12:55 AM 60.8 °F 57.2 °F 88% 30.09 in 10.0 mi North 5.8 mph - N/A   Overcast
1:15 AM 60.8 °F 57.2 °F 88% 30.09 in 10.0 mi NNW 6.9 mph - N/A   Overcast
1:35 AM 60.8 °F 57.2 °F 88% 30.10 in 10.0 mi NNW 6.9 mph - N/A   Overcast
1:55 AM 60.8 °F 59.0 °F 94% 30.09 in 10.0 mi NNW 6.9 mph - N/A   Overcast
2:15 AM 60.8 °F 59.0 °F 94% 30.10 in 8.0 mi North 8.1 mph - N/A   Overcast
2:35 AM 60.8 °F 59.0 °F 94% 30.10 in 10.0 mi North 11.5 mph - N/A   Overcast
2:55 AM 60.8 °F 57.2 °F 88% 30.09 in 10.0 mi North 11.5 mph - N/A   Overcast
3:15 AM 60.8 °F 57.2 °F 88% 30.10 in 10.0 mi North 8.1 mph - N/A   Overcast
3:35 AM 60.8 °F 57.2 °F 88% 30.10 in 10.0 mi North 5.8 mph - N/A   Overcast
3:55 AM 60.8 °F 59.0 °F 94% 30.10 in 10.0 mi Variable 4.6 mph - N/A   Overcast
4:15 AM 60.8 °F 59.0 °F 94% 30.09 in 10.0 mi North 5.8 mph - N/A   Overcast
4:35 AM 60.8 °F 59.0 °F 94% 30.09 in 10.0 mi North 8.1 mph - N/A   Overcast
4:55 AM 62.6 °F 59.0 °F 88% 30.10 in 9.0 mi North 6.9 mph - N/A   Overcast
5:15 AM 60.8 °F 59.0 °F 94% 30.10 in 8.0 mi NNW 5.8 mph - N/A   Overcast
5:35 AM 60.8 °F 59.0 °F 94% 30.11 in 8.0 mi NNW 4.6 mph - N/A   Overcast
5:55 AM 62.6 °F 59.0 °F 88% 30.11 in 9.0 mi North 4.6 mph - N/A   Overcast
6:15 AM 62.6 °F 59.0 °F 88% 30.12 in 10.0 mi North 8.1 mph - N/A   Overcast
6:35 AM 62.6 °F 57.2 °F 82% 30.13 in 10.0 mi North 6.9 mph - N/A   Overcast
6:55 AM 62.6 °F 57.2 °F 82% 30.15 in 8.0 mi NNW 4.6 mph - N/A   Overcast
7:15 AM 62.6 °F 57.2 °F 82% 30.15 in 9.0 mi Variable 6.9 mph - N/A   Overcast
7:35 AM 62.6 °F 57.2 °F 82% 30.16 in 9.0 mi North 5.8 mph - N/A   Overcast
7:55 AM 62.6 °F 57.2 °F 82% 30.17 in 8.0 mi North 5.8 mph - N/A   Overcast
8:15 AM 64.4 °F 55.4 °F 73% 30.18 in 9.0 mi NNE 5.8 mph - N/A   Overcast
8:35 AM 64.4 °F 55.4 °F 73% 30.19 in 10.0 mi NNE 5.8 mph - N/A   Overcast
8:55 AM 62.6 °F 57.2 °F 82% 30.20 in 9.0 mi NNW 8.1 mph - N/A   Overcast
9:15 AM 62.6 °F 57.2 °F 82% 30.20 in 9.0 mi North 5.8 mph - N/A   Overcast
9:35 AM 62.6 °F 57.2 °F 82% 30.21 in 9.0 mi NNW 5.8 mph - N/A   Overcast
9:55 AM 64.4 °F 57.2 °F 77% 30.22 in 9.0 mi NNW 6.9 mph - N/A   Mostly Cloudy
10:10 AM 62.6 °F 57.2 °F 82% 30.21 in 9.0 mi NNW 8.1 mph - N/A   Mostly Cloudy
10:35 AM 62.6 °F 59.0 °F 88% 30.22 in 9.0 mi NNW 8.1 mph - N/A   Scattered Clouds
10:55 AM 62.6 °F 57.2 °F 82% 30.22 in 9.0 mi NNW 10.4 mph - N/A   Partly Cloudy
11:15 AM 62.6 °F 57.2 °F 82% 30.22 in 9.0 mi NNW 8.1 mph - N/A   Clear
11:35 AM 62.6 °F 57.2 °F 82% 30.23 in 9.0 mi North 9.2 mph - N/A   Partly Cloudy
11:55 AM 62.6 °F 59.0 °F 88% 30.24 in 9.0 mi NNW 8.1 mph - N/A   Clear
12:15 PM 62.6 °F 57.2 °F 82% 30.23 in 8.0 mi North 10.4 mph - N/A   Mostly Cloudy
12:35 PM 62.6 °F 59.0 °F 88% 30.23 in 8.0 mi North 9.2 mph - N/A   Scattered Clouds
12:55 PM 62.6 °F 59.0 °F 88% 30.22 in 8.0 mi North 8.1 mph - N/A   Clear
1:15 PM 62.6 °F 59.0 °F 88% 30.23 in 9.0 mi North 10.4 mph - N/A   Clear
1:35 PM 62.6 °F 59.0 °F 88% 30.22 in 9.0 mi North 6.9 mph - N/A   Partly Cloudy
1:55 PM 64.4 °F 55.4 °F 73% 30.21 in 9.0 mi NNE 13.8 mph 20.7 mph N/A   Partly Cloudy
2:15 PM 64.4 °F 55.4 °F 73% 30.20 in 10.0 mi NNE 10.4 mph 19.6 mph N/A   Partly Cloudy
2:35 PM 64.4 °F 53.6 °F 68% 30.20 in 10.0 mi NNE 12.7 mph 19.6 mph N/A   Scattered Clouds
2:55 PM 64.4 °F 53.6 °F 68% 30.19 in 10.0 mi NNE 16.1 mph 24.2 mph N/A   Partly Cloudy
3:15 PM 64.4 °F 53.6 °F 68% 30.18 in 10.0 mi NNE 17.3 mph 26.5 mph N/A   Clear
3:35 PM 64.4 °F 53.6 °F 68% 30.18 in 10.0 mi NNE 20.7 mph 27.6 mph N/A   Clear
3:55 PM 64.4 °F 53.6 °F 68% 30.17 in 10.0 mi NE 23.0 mph - N/A   Clear
4:15 PM 64.4 °F 51.8 °F 64% 30.16 in 10.0 mi NNE 21.9 mph 27.6 mph N/A   Clear
4:35 PM 64.4 °F 53.6 °F 68% 30.16 in 10.0 mi NNE 19.6 mph 26.5 mph N/A   Clear
4:55 PM 64.4 °F 53.6 °F 68% 30.16 in 10.0 mi NNE 19.6 mph 27.6 mph N/A   Clear
5:15 PM 64.4 °F 51.8 °F 64% 30.16 in 10.0 mi NNE 21.9 mph 29.9 mph N/A   Clear
5:35 PM 64.4 °F 51.8 °F 64% 30.16 in 10.0 mi NE 25.3 mph - N/A   Clear
5:55 PM 64.4 °F 51.8 °F 64% 30.17 in 10.0 mi NE 25.3 mph 35.7 mph N/A   Clear
6:15 PM 64.4 °F 51.8 °F 64% 30.18 in 10.0 mi NE 26.5 mph - N/A   Clear
6:35 PM 64.4 °F 51.8 °F 64% 30.18 in 10.0 mi NE 27.6 mph - N/A   Clear
6:55 PM 64.4 °F 51.8 °F 64% 30.18 in 10.0 mi NE 27.6 mph - N/A   Clear
7:15 PM 64.4 °F 51.8 °F 64% 30.17 in 10.0 mi NE 26.5 mph - N/A   Clear
7:35 PM 64.4 °F 51.8 °F 64% 30.17 in 10.0 mi NE 29.9 mph - N/A   Clear
7:55 PM 64.4 °F 50.0 °F 59% 30.18 in 10.0 mi NE 27.6 mph 33.4 mph N/A   Partly Cloudy
8:15 PM 64.4 °F 51.8 °F 64% 30.18 in 10.0 mi NE 23.0 mph 28.8 mph N/A   Scattered Clouds
8:35 PM 64.4 °F 50.0 °F 59% 30.19 in 10.0 mi NE 25.3 mph - N/A   Mostly Cloudy
8:55 PM 64.4 °F 50.0 °F 59% 30.19 in 10.0 mi NE 24.2 mph - N/A   Mostly Cloudy
9:15 PM 64.4 °F 50.0 °F 59% 30.19 in 10.0 mi ENE 23.0 mph - N/A   Scattered Clouds
9:35 PM 64.4 °F 50.0 °F 59% 30.19 in 10.0 mi NE 24.2 mph - N/A   Scattered Clouds
9:55 PM 64.4 °F 50.0 °F 59% 30.19 in 10.0 mi ENE 24.2 mph - N/A   Mostly Cloudy
10:15 PM 64.4 °F 50.0 °F 59% 30.20 in 10.0 mi ENE 25.3 mph - N/A   Mostly Cloudy
10:35 PM 64.4 °F 50.0 °F 59% 30.20 in 10.0 mi ENE 26.5 mph - N/A   Overcast
10:55 PM 64.4 °F 51.8 °F 64% 30.20 in 10.0 mi ENE 25.3 mph - N/A   Overcast
11:15 PM 64.4 °F 51.8 °F 64% 30.18 in 10.0 mi ENE 26.5 mph - N/A   Overcast
11:35 PM 64.4 °F 51.8 °F 64% 30.18 in 10.0 mi ENE 26.5 mph - N/A   Overcast
11:55 PM 64.4 °F 51.8 °F 64% 30.18 in 10.0 mi East 24.2 mph - N/A   Overcast